Back to catalog

STARLINK-36412

AliveCommunicationsVLEO
NORAD 67518·PAYLOAD·🇺🇸 United States

Launched Jan 18, 2026 from Cape Canaveral Space Force Station

Loading…

Next Passes (next 24 hours)

TLE

FreshSource: CelesTrak SupGP

Epoch: Sep 15, 2026, 03:39 UTC

1 67518C 26012AB  26258.15256944  .00042276  00000+0  15309-2 0  2585
2 67518  43.0030 324.1158 0001255 262.6286   5.6055 15.27564484    16

Track STARLINK-36412 in real time with AllMySat

Download on the App Store